Location: Dana
(41.8364°N, 106.7042°W)
Time: 12:44:00
(UTC+00:00)

ISS - Pass Details

Date: 16 April 2026
Orbit: 414 x 424 km, 51.6° (Epoch: 12 May)

Event Time Altitude Azimuth Distance (km) Brightness Sun altitude
Exits shadow 11:08:08 - 174° (S) 2,018 -0.5 -14.1°
Reaches altitude 10° 11:10:41 10° 141° (SE) 1,492 -0.8 -13.7°
Maximum altitude 11:11:26 11° 129° (SE) 1,460 -0.7 -13.6°
Drops below altitude 10° 11:12:11 10° 116° (ESE) 1,496 -0.4 -13.5°
Sets 11:15:48 0° 75° (ENE) 2,371 1.9 -12.9°
